This is the latest recevied weather packets stored in our database for station/object N8QF. If no packets are shown the sender has not sent any weather packets the latest 10 day(s).
| Time | Temp. | Humidity | Pressure | Rain* | Wind** | Luminosity | Snow |
|---|---|---|---|---|---|---|---|
| 1777402277 | 22.22° C | 62% | 1012.6 hPa | 22.35 mm | - | - | - |
| 1777401977 | 22.22° C | 62% | 1012.8 hPa | 22.35 mm | - | - | - |
| 1777401677 | 22.22° C | 66% | 1012.8 hPa | 22.35 mm | - | - | - |
| 1777401377 | 21.67° C | 65% | 1012.8 hPa | 22.35 mm | - | - | - |
| 1777401076 | 21.67° C | 67% | 1013 hPa | 22.35 mm | - | - | - |
| 1777400776 | 21.67° C | 67% | 1012.9 hPa | 22.35 mm | - | - | - |
| 1777400476 | 21.67° C | 67% | 1013 hPa | 22.35 mm | - | - | - |
| 1777400176 | 21.67° C | 67% | 1013 hPa | 22.35 mm | - | - | - |
| 1777399875 | 21.67° C | 65% | 1013.1 hPa | 22.35 mm | - | - | - |
| 1777399574 | 21.67° C | 64% | 1013.1 hPa | 22.35 mm | - | - | - |
| 1777399274 | 21.67° C | 66% | 1013.1 hPa | 22.35 mm | - | - | - |
| 1777398974 | 21.11° C | 66% | 1013.2 hPa | 22.35 mm | - | - | - |
| 1777398673 | 21.67° C | 67% | 1013.1 hPa | 22.35 mm | - | - | - |
| 1777398373 | 21.67° C | 66% | 1013 hPa | 22.35 mm | - | - | - |
| 1777398073 | 21.67° C | 69% | 1013 hPa | 22.35 mm | - | - | - |
| 1777397773 | 21.67° C | 68% | 1013.1 hPa | 22.35 mm | - | - | - |
| 1777397472 | 21.67° C | 69% | 1013.1 hPa | 22.35 mm | - | - | - |
| 1777397172 | 21.11° C | 69% | 1013.2 hPa | 22.35 mm | - | - | - |
| 1777396872 | 21.11° C | 68% | 1013.3 hPa | 22.35 mm | - | - | - |
| 1777396572 | 20.56° C | 71% | 1013.3 hPa | 22.35 mm | - | - | - |
| 1777396272 | 21.11° C | 71% | 1013.4 hPa | 22.35 mm | - | - | - |
| 1777395971 | 20.56° C | 71% | 1013.4 hPa | 22.35 mm | - | - | - |
| 1777395671 | 20.56° C | 73% | 1013.3 hPa | 22.35 mm | - | - | - |
| 1777395371 | 20° C | 72% | 1013.4 hPa | 22.35 mm | - | - | - |
| 1777395071 | 20.56° C | 72% | 1013.5 hPa | 22.35 mm | - | - | - |
* Rain since midnight (hover to see other rain measurements)
** Current wind speed in m/s (hover to see current wind gust speed)